Tracking 23762 objects as of 21-Oct-2021
HD Live streaming from Space Station
objects crossing your sky now

SL-14 R/B

Track SL-14 R/B now!
10-day predictions


NORAD ID: 23793
Int'l Code: 1996-009G
Perigee: 1,415.1 km
Apogee: 1,485.9 km
Inclination: 82.6 °
Period: 114.7 minutes
Semi major axis: 7821 km
RCS: 5.1045 m2 (large)
Launch date: February 19, 1996
Source: Commonwealth of Independent States (former USSR) (CIS)
Launch site: PLESETSK MISSILE AND SPACE COMPLEX (PKMTR)

Note: This is a ROCKET BODY
aabbcc
Your satellite tracking list
Your tracking list is empty




NASA's NSSDC Master Catalog

Two Line Element Set (TLE):
1 23793U 96009G   21293.78220432  .00000012  00000-0  10545-4 0  9995
2 23793  82.5742  40.4126 0045239 168.9850 310.0353 12.55072252176045
Source of the keplerian elements: AFSPC